GSAT0209 (GALILEO 12)

Last updated on Mon Jul 07 2025 00:02:32 GMT+0000 (Coordinated Universal Time)

1 41174U 15079A 25186.36761765 -.00000020 00000+0 00000+0 0 9993 2 41174 55.6181 110.7856 0004785 336.2169 23.7429 1.70473882 58861
UTC large
Height (km)
Speed (km/s)
/
Latitude / Longitude
Inclination (degrees)
Orbital Period (minutes)
Azimuth
Elevation
Range (km)
Doppler Factor

Next 0 passes for location: London (51.5072 / 0.1276)

Sorry there are no passes over London.